NOAA NWS Hourly Roundups by Site

Regional Weather Roundup for Bismarck, ND

To Select Another Site Choose from List

Select Site:  

432
ASUS43 KBIS 231110
RWRBIS

NWR BROADCAST TEXT
NATIONAL WEATHER SERVICE BISMARCK ND
600 AM CDT THU MAY 23 2024

NOTE: "FAIR" INDICATES FEW OR NO CLOUDS BELOW 12,000 FEET WITH NO
SIGNIFICANT WEATHER AND/OR OBSTRUCTIONS TO VISIBILITY.


CITY           SKY/WX    TMP DP  RH WIND       PRES   REMARKS
WILLISTON      RAIN      46  45  96 NE15      29.76S FOG
MINOT          CLOUDY    49  47  93 NE8       29.75F
MINOT AFB      DRIZZLE   49  46  89 E9        29.73F
BISMARCK       CLOUDY    52  46  80 NE8       29.71S
DICKINSON      CLEAR     45  44  97 NE10      29.65F
GARRISON         N/A     50  47  89 E12G22    29.73F
HETTINGER ARPT CLEAR     48  44  86 E12       29.64F
JAMESTOWN      CLOUDY    52  48  86 E10       29.72F
CARRINGTON     CLOUDY    50  48  93 E13G20    29.76S
HAZEN          MOCLDY    50  46  87 NE8       29.72F
MANDAN         CLOUDY    50  50 100 NE10      29.70F
OAKES          MOCLDY    52  48  87 SE7       29.73S
STANLEY        CLOUDY    48  48 100 NE8       29.77S
TIOGA          MOCLDY    46  46 100 NE9       29.78S
WATFORD CITY   PTCLDY    48  48 100 NE9       29.73F
$$

CITY           SKY/WX    TMP DP  RH WIND       PRES   REMARKS
GRAND FORKS    RAIN      49  43  80 E7        29.83R
GRAND FORKS AF RAIN      47  45  92 NE5       29.80S
DEVILS LAKE    LGT RAIN  46  44  93 E12       29.82R FOG
FARGO          MOCLDY    54  48  80 E8        29.75F
CAVALIER       CLOUDY    45  45 100 NE8       29.86R
GRAFTON        MOCLDY    46  43  87 NE12      29.85R
LANGDON        CLOUDY    43  43 100 NE12G18   29.84S
ROLLA          CLOUDY    45  43  93 E14       29.83R
WALHALLA       CLOUDY    45  43  93 NE7       29.86S
$$

CITY           SKY/WX    TMP DP  RH WIND       PRES   REMARKS
ABERDEEN       MOCLDY    55  48  77 SE12      29.70F
MOBRIDGE       CLEAR     50  45  83 E9        29.61F
BUFFALO          N/A     46  38  73 NE10      29.60F
RAPID CITY     PTCLDY    46  40  79 SE6       29.60F
GLASGOW        LGT RAIN  47  41  80 NE20      29.75F
SIDNEY         CLOUDY    49  47  93 NE10      29.73S
WOLF POINT     CLOUDY    49  43  80 NE14      29.76S
GLENDIVE       MOCLDY    48  44  86 NE14      29.70F
MILES CITY     MOCLDY    48  44  86 NE16      29.65F
BAKER          MOCLDY    44  42  93 NE8       29.66F
$$

CITY           SKY/WX    TMP DP  RH WIND       PRES   REMARKS
BILLINGS       LGT RAIN  46  45  96 NE14      29.65F
GREAT FALLS    LGT RAIN  42  41  96 N22G31    29.81R
REGINA         CLOUDY    41  39  93 NE5       29.88S
ESTEVAN        CLOUDY    46  41  81 NE15G21   29.81R
$$




 

View Past Reports for Bismarck, ND.

Products Courtesy of NOAA-NWS
NWS Information Parsing Script by Ken True at Saratoga Weather - Script by SE Lincoln Weather.